#timestamp,LO_Frequency,Hit,StdDev 
1615770015.7,286046995.7,N
1615770035.5,286046996.2,N
1615770055.3,286046995.5,N
1615770075.2,286046996.1,N
1615770095.0,286046993.4,N
1615770095.9,286046993.4,N
1615770115.8,286046991.9,N
1615770135.6,286046992.2,N
1615770155.4,286046990.1,N
1615770175.3,286046991.6,N
1615770195.1,286046987.5,Y
1615770215.8,286046991.2,P
1615770235.7,286046991.4,P
1615770255.5,286046989.4,P
1615770275.4,286046989.6,Y
1615770295.2,286046997.8,P
1615770315.0,286046995.7,N
1615770315.9,286046995.7,N
1615770335.8,286046995.6,N
1615770355.6,286046996.2,N
1615770375.4,286046996.4,N
1615770395.3,286046995.9,N
1615770415.1,286046996.1,N
1615770435.9,286046995.7,N
1615770455.7,286046995.6,Y
1615770475.5,286047000.5,P
1615770495.4,286047002.1,N
1615770515.2,286047004.3,N
1615770535.0,286047002.1,N
1615770535.9,286047002.1,N
1615770555.8,286047002.5,N
1615770575.6,286046999.7,N
1615770595.5,286047000.1,N
1615770615.3,286047000.4,N
1615770635.1,286047001.2,N
1615770655.9,286047001.0,N
1615770675.7,286047001.1,N
1615770695.5,286047001.1,N
1615770715.4,286047001.0,N
1615770735.2,286047001.0,N
1615770755.1,286047000.9,N
1615770756.0,286047000.9,N
1615770775.8,286047002.6,N
1615770795.6,286047004.0,N
1615770815.5,286047003.9,N
1615770835.3,286047002.3,N
1615770855.1,286047001.9,N
1615770875.9,286047001.4,N
1615770895.7,286047002.4,N
1615770915.6,286047001.7,N
1615770935.4,286047002.1,N
1615770955.2,286047004.4,N
1615770975.1,286047003.1,N
1615770976.0,286047003.1,N
1615770995.8,286047004.0,N
1615771015.6,286047003.9,Y
1615771035.5,286047002.7,P
1615771055.3,286047004.4,P
1615771075.2,286047004.3,P
1615771095.9,286047002.0,N
1615771115.7,286047001.6,N
1615771135.6,286047002.0,N
1615771155.4,286047002.6,N
1615771175.2,286047001.5,N
1615771195.1,286047001.8,N
1615771196.0,286047001.8,N
1615771215.8,286047002.1,N
1615771235.6,286047002.6,N
1615771255.5,286046999.8,N
1615771275.3,286047000.1,N
1615771295.2,286047000.3,N
1615771315.9,286047000.2,N
1615771335.7,286047002.7,N
1615771355.6,286047002.3,N
1615771375.4,286047002.2,N
1615771395.2,286047001.6,N
1615771415.1,286047004.4,Y
1615771416.0,286047004.4,P
1615771435.8,286047001.7,N
1615771455.7,286047001.5,N
1615771475.5,286047004.4,Y
1615771495.3,286047001.1,P
1615771515.2,286046998.5,N
1615771535.0,286047011.9,P
1615771535.9,286046998.3,N
1615771555.8,286046998.3,N
1615771575.6,286046998.7,N
1615771595.4,286046999.2,N
1615771615.3,286046998.9,N
1615771635.1,286046999.2,N
1615771655.8,286046999.4,N
1615771675.7,286046997.0,N
1615771695.5,286046999.0,N
1615771715.4,286046998.5,N
1615771735.2,286046998.7,N
1615771755.0,286046999.4,N
1615771755.9,286046999.4,N
1615771775.8,286046998.8,N
1615771795.6,286046998.8,N
1615771815.4,286047002.7,N
1615771835.3,286047002.8,N
1615771855.1,286047000.9,N
1615771875.9,286047000.8,N
1615771895.7,286047000.9,N
1615771915.5,286047001.0,N
1615771935.4,286047000.8,N
1615771955.2,286046998.9,N
1615771975.0,286046998.8,N
1615771975.9,286046998.8,N
1615771995.8,286046999.6,N
1615772015.6,286046999.1,N
1615772035.5,286046999.6,N
1615772055.3,286046999.6,N
1615772075.1,286046996.6,N
1615772095.9,286046999.5,N
1615772115.7,286046997.2,N
1615772135.5,286046998.9,N
1615772155.4,286046998.8,N
1615772175.2,286046999.1,N
1615772195.0,286046998.6,N
1615772195.9,286046998.6,N
1615772215.8,286046999.9,N
1615772235.6,286046999.9,N
1615772255.5,286047000.7,N
1615772275.3,286046998.3,N
1615772295.1,286046998.6,N
1615772315.9,286046998.5,N
1615772335.7,286046998.7,N
1615772355.5,286046999.0,N
1615772375.4,286046999.2,N
1615772395.2,286046996.9,N
1615772415.1,286046996.9,N
1615772416.0,286046996.9,N
1615772435.8,286046999.4,N
1615772455.6,286046998.3,N
1615772475.5,286047000.9,N
1615772495.3,286047004.2,Y
1615772515.1,286047007.2,P
1615772535.9,286047009.1,N
1615772555.7,286047008.6,N
1615772575.6,286047006.4,N
1615772595.4,286047004.7,N
1615772615.2,286047011.9,Y
1615772635.1,286046998.2,P
1615772636.0,286046998.2,N
1615772655.8,286047000.6,N
1615772675.7,286047001.1,N
1615772695.5,286046999.7,N
1615772715.3,286047002.0,N
1615772735.2,286047006.0,N
1615772755.0,286047005.3,N
1615772755.9,286047005.3,N
1615772775.7,286047002.9,N
1615772795.6,286047005.8,N
1615772815.4,286047005.3,N
1615772835.3,286047007.6,N
1615772855.1,286047005.9,N
1615772856.0,286047005.9,N
1615772875.8,286047003.0,N
1615772895.7,286047005.0,N
1615772915.5,286047005.3,N
1615772935.4,286047008.9,Y
1615772955.2,286047005.1,P
1615772975.0,286047002.9,P
1615772975.9,286047002.9,P
1615772995.8,286047001.6,N
1615773015.6,286047003.9,Y
1615773035.4,286047001.0,P
1615773055.3,286046998.7,N
1615773075.1,286046998.7,N
1615773095.9,286046999.6,N
1615773115.7,286046999.3,N
1615773135.5,286046998.8,N
1615773155.4,286047001.0,N
1615773175.2,286047000.5,N
1615773195.0,286047000.8,N
1615773195.9,286047000.8,N
1615773215.8,286047001.0,N
1615773235.6,286047001.2,N
1615773255.5,286046998.4,N
1615773275.3,286046999.3,N
1615773295.1,286046999.2,N
1615773315.9,286047000.0,N
1615773335.7,286047000.9,N
1615773355.5,286047001.0,N
1615773375.4,286047001.2,N
1615773395.2,286046998.9,N
1615773415.0,286046998.4,N
1615773415.9,286046998.4,N
1615773435.8,286047000.6,N
1615773455.6,286047000.2,N
1615773475.5,286046999.6,N
1615773495.3,286046999.3,N
1615773515.1,286046998.5,N
1615773535.9,286047002.5,N
1615773555.7,286047005.7,Y
1615773575.6,286047003.1,P
1615773595.4,286047002.1,N
